DAL2126 KSAN-KATL

Flight info

Callsign DAL2126
Flight time N/A
Altitude 33000
Route ZZOOO4 TGOLD PXR ONM CNX TURKI/N0444F350 CDS ADM GRAZN MEM HUTCC KNSAW RUSSA GLAVN2
Aircraft A321/M-A321/LB1

Departure

Time 2026-05-04 16:39
Airport San Diego International Airport (KSAN)

Arrival

Time N/A
Airport Hartsfield Jackson Atlanta International Airport (KATL)
Time Latitude Longitude Altitude Speed Heading
2026-05-04 16:14 32.73377 -117.20349 26 ft 0 kts 268°
2026-05-04 16:26 32.73377 -117.20341 26 ft 2 kts 268°
2026-05-04 16:26 32.73374 -117.20287 26 ft 2 kts 307°
2026-05-04 16:27 32.73349 -117.20270 26 ft 0 kts 349°
2026-05-04 16:28 32.73346 -117.20270 26 ft 0 kts 347°
2026-05-04 16:30 32.73383 -117.20277 26 ft 6 kts
2026-05-04 16:31 32.73508 -117.20232 26 ft 12 kts 24°
2026-05-04 16:31 32.73484 -117.19920 26 ft 14 kts 106°
2026-05-04 16:32 32.73400 -117.19573 26 ft 14 kts 106°
2026-05-04 16:33 32.73343 -117.19336 26 ft 15 kts 106°
2026-05-04 16:33 32.73285 -117.19096 26 ft 15 kts 106°
2026-05-04 16:34 32.73225 -117.18851 26 ft 15 kts 106°
2026-05-04 16:34 32.73196 -117.18729 26 ft 15 kts 106°
2026-05-04 16:35 32.73106 -117.18358 26 ft 15 kts 106°
2026-05-04 16:35 32.73015 -117.17984 26 ft 15 kts 106°
2026-05-04 16:36 32.72985 -117.17860 27 ft 15 kts 106°
2026-05-04 16:36 32.72955 -117.17718 27 ft 4 kts 90°
2026-05-04 16:37 32.73007 -117.17620 27 ft 11 kts 346°
2026-05-04 16:37 32.73048 -117.17703 27 ft 11 kts 287°
2026-05-04 16:37 32.73200 -117.18335 27 ft 96 kts 287°
2026-05-04 16:38 32.73762 -117.20657 300 ft 175 kts 286°
2026-05-04 16:39 32.74798 -117.24924 2038 ft 185 kts 286°
2026-05-04 16:39 32.75544 -117.28062 2568 ft 209 kts 287°
2026-05-04 16:40 32.76419 -117.31653 3106 ft 241 kts 283°
2026-05-04 16:40 32.75433 -117.35334 4265 ft 252 kts 221°
2026-05-04 16:41 32.72084 -117.35973 5452 ft 266 kts 158°
2026-05-04 16:41 32.68135 -117.31191 7178 ft 279 kts 133°
2026-05-04 16:42 32.64250 -117.26009 9010 ft 284 kts 135°
2026-05-04 16:43 32.62746 -117.21587 9954 ft 310 kts 99°
2026-05-04 16:43 32.62349 -117.16286 10511 ft 338 kts 98°
2026-05-04 16:43 32.62128 -117.13460 10759 ft 351 kts 98°
2026-05-04 16:44 32.64635 -117.01829 12455 ft 381 kts 68°
2026-05-04 16:45 32.66430 -116.95873 13386 ft 387 kts 79°
2026-05-04 16:46 32.66930 -116.86256 14720 ft 396 kts 93°
2026-05-04 16:46 32.67024 -116.79690 15661 ft 402 kts 92°
2026-05-04 16:47 32.67104 -116.73060 16533 ft 407 kts 95°
2026-05-04 16:47 32.66999 -116.66293 17385 ft 413 kts 95°
2026-05-04 16:48 32.66822 -116.55985 18646 ft 421 kts 95°
2026-05-04 16:48 32.66764 -116.52505 19024 ft 425 kts 96°
2026-05-04 16:49 32.66642 -116.45510 19793 ft 430 kts 95°
2026-05-04 16:49 32.66931 -116.38336 20499 ft 441 kts 88°
2026-05-04 16:50 32.67613 -116.31071 21184 ft 447 kts 89°
2026-05-04 16:50 32.68297 -116.23736 21873 ft 451 kts 89°
2026-05-04 16:51 32.68961 -116.16338 22478 ft 457 kts 89°
2026-05-04 16:51 32.69300 -116.12589 22832 ft 458 kts 89°
2026-05-04 16:51 32.69966 -116.05047 23441 ft 463 kts 89°
2026-05-04 16:52 32.70668 -115.97401 24100 ft 468 kts 89°
2026-05-04 16:52 32.71021 -115.93595 24362 ft 471 kts 89°
2026-05-04 16:53 32.71740 -115.85813 24952 ft 476 kts 89°
2026-05-04 16:53 32.72822 -115.73995 25782 ft 484 kts 89°
2026-05-04 16:54 32.73176 -115.70066 26037 ft 488 kts 89°
2026-05-04 16:55 32.74624 -115.53907 27046 ft 498 kts 90°
2026-05-04 16:55 32.75062 -115.45686 27508 ft 500 kts 95°
2026-05-04 16:56 32.75247 -115.37440 27949 ft 505 kts 95°
2026-05-04 16:56 32.75520 -115.24913 28635 ft 511 kts 96°
2026-05-04 16:57 32.75613 -115.20650 28839 ft 513 kts 95°
2026-05-04 16:57 32.75798 -115.12173 29199 ft 518 kts 95°
2026-05-04 16:58 32.76070 -114.99276 29710 ft 527 kts 95°
2026-05-04 16:58 32.76161 -114.94937 29989 ft 527 kts 95°
2026-05-04 16:59 32.76338 -114.86262 30521 ft 528 kts 95°
2026-05-04 17:00 32.76671 -114.68808 31446 ft 531 kts 95°
2026-05-04 17:00 32.76892 -114.55649 32005 ft 536 kts 94°
2026-05-04 17:01 32.77291 -114.46759 32348 ft 548 kts 83°
2026-05-04 17:01 32.79155 -114.37997 32807 ft 551 kts 76°
2026-05-04 17:02 32.81227 -114.29224 32950 ft 553 kts 77°
2026-05-04 17:03 32.84176 -114.16029 32959 ft 552 kts 78°
2026-05-04 17:03 32.87046 -114.02793 32962 ft 552 kts 78°
2026-05-04 17:04 32.90847 -113.85152 32961 ft 552 kts 78°
2026-05-04 17:05 32.94626 -113.67495 32960 ft 551 kts 78°
2026-05-04 17:06 32.97439 -113.54262 32956 ft 551 kts 78°
2026-05-04 17:07 32.99920 -113.42507 32952 ft 552 kts 77°
2026-05-04 17:07 33.02097 -113.32165 32951 ft 551 kts 78°
2026-05-04 17:08 33.04868 -113.18905 32959 ft 552 kts 78°
2026-05-04 17:09 33.06714 -113.10055 32959 ft 552 kts 78°
2026-05-04 17:09 33.08554 -113.01209 32964 ft 553 kts 78°
2026-05-04 17:10 33.13128 -112.79000 32962 ft 553 kts 77°
2026-05-04 17:11 33.14948 -112.70137 32961 ft 551 kts 78°
2026-05-04 17:12 33.17650 -112.56878 32964 ft 552 kts 77°
2026-05-04 17:13 33.22134 -112.34673 32978 ft 551 kts 78°
2026-05-04 17:14 33.25711 -112.16875 33001 ft 550 kts 78°
2026-05-04 17:15 33.28354 -112.03571 32984 ft 551 kts 78°
2026-05-04 17:16 33.31855 -111.85841 32969 ft 550 kts 77°
2026-05-04 17:17 33.35345 -111.68059 32975 ft 550 kts 78°
2026-05-04 17:18 33.38799 -111.50298 32985 ft 550 kts 77°
2026-05-04 17:19 33.42230 -111.32523 33017 ft 550 kts 78°
2026-05-04 17:20 33.45636 -111.14705 33055 ft 550 kts 77°
2026-05-04 17:20 33.48170 -111.01389 33060 ft 550 kts 78°
2026-05-04 17:21 33.51530 -110.83543 33083 ft 550 kts 78°
2026-05-04 17:22 33.53199 -110.74645 33100 ft 550 kts 77°
2026-05-04 17:23 33.56528 -110.56774 33114 ft 550 kts 77°
2026-05-04 17:24 33.59009 -110.43362 33119 ft 552 kts 77°
2026-05-04 17:25 33.62293 -110.25459 33125 ft 552 kts 78°
2026-05-04 17:26 33.65552 -110.07529 33155 ft 551 kts 78°
2026-05-04 17:27 33.69604 -109.85050 33188 ft 552 kts 78°
2026-05-04 17:28 33.72795 -109.67095 33209 ft 553 kts 77°
2026-05-04 17:29 33.77568 -109.40074 33238 ft 553 kts 78°
2026-05-04 17:31 33.81489 -109.17531 33262 ft 553 kts 78°
2026-05-04 17:32 33.85366 -108.94996 33264 ft 553 kts 77°
2026-05-04 17:33 33.88456 -108.76878 33260 ft 554 kts 77°
2026-05-04 17:34 33.91508 -108.58800 33267 ft 555 kts 77°
2026-05-04 17:35 33.95301 -108.36077 33256 ft 555 kts 76°
2026-05-04 17:36 33.96808 -108.26994 33255 ft 553 kts 77°
2026-05-04 17:36 33.98300 -108.17944 33244 ft 555 kts 77°
2026-05-04 17:37 33.99784 -108.08862 33239 ft 554 kts 77°
2026-05-04 17:37 34.01272 -107.99771 33224 ft 554 kts 76°
2026-05-04 17:38 34.02748 -107.90678 33222 ft 554 kts 76°
2026-05-04 17:38 34.04219 -107.81600 33222 ft 553 kts 76°
2026-05-04 17:39 34.06406 -107.67992 33223 ft 553 kts 76°
2026-05-04 17:39 34.07854 -107.58930 33222 ft 553 kts 76°
2026-05-04 17:40 34.09303 -107.49806 33218 ft 552 kts 76°
2026-05-04 17:40 34.10736 -107.40749 33215 ft 553 kts 76°
2026-05-04 17:41 34.12173 -107.31597 33207 ft 553 kts 76°
2026-05-04 17:41 34.13591 -107.22535 33199 ft 553 kts 77°
2026-05-04 17:42 34.15003 -107.13466 33185 ft 553 kts 76°
2026-05-04 17:42 34.16421 -107.04348 33166 ft 553 kts 76°
2026-05-04 17:43 34.17825 -106.95245 33139 ft 553 kts 77°
2026-05-04 17:43 34.19210 -106.86187 33132 ft 552 kts 77°
2026-05-04 17:44 34.20596 -106.77080 33135 ft 551 kts 77°
2026-05-04 17:44 34.21973 -106.68012 33145 ft 551 kts 76°
2026-05-04 17:45 34.23352 -106.58901 33148 ft 553 kts 76°
2026-05-04 17:45 34.24712 -106.49847 33144 ft 553 kts 76°
2026-05-04 17:46 34.26084 -106.40684 33151 ft 553 kts 77°
2026-05-04 17:46 34.27434 -106.31589 33147 ft 553 kts 77°
2026-05-04 17:47 34.28788 -106.22435 33156 ft 553 kts 77°
2026-05-04 17:47 34.30126 -106.13341 33157 ft 554 kts 77°
2026-05-04 17:48 34.31461 -106.04180 33152 ft 552 kts 77°
2026-05-04 17:48 34.32785 -105.95081 33153 ft 552 kts 77°
2026-05-04 17:49 34.34111 -105.85933 33164 ft 552 kts 77°
2026-05-04 17:49 34.35421 -105.76810 33156 ft 552 kts 77°
2026-05-04 17:50 34.36559 -105.67703 33156 ft 554 kts 83°
2026-05-04 17:50 34.36853 -105.58357 33151 ft 556 kts 89°
2026-05-04 17:51 34.36829 -105.49068 33143 ft 555 kts 89°
2026-05-04 17:51 34.36814 -105.39738 33135 ft 555 kts 89°
2026-05-04 17:52 34.36821 -105.30433 33124 ft 555 kts 89°
2026-05-04 17:52 34.36830 -105.21129 33121 ft 555 kts 90°
2026-05-04 17:53 34.36832 -105.11786 33122 ft 555 kts 89°
2026-05-04 17:53 34.36831 -105.02481 33111 ft 555 kts 90°
2026-05-04 17:54 34.36817 -104.93214 33097 ft 554 kts 89°
2026-05-04 17:54 34.36798 -104.83908 33084 ft 555 kts 89°
2026-05-04 17:55 34.36774 -104.74591 33072 ft 554 kts 89°
2026-05-04 17:55 34.36745 -104.65305 33068 ft 554 kts 89°
2026-05-04 17:56 34.36705 -104.56024 33063 ft 554 kts 89°
2026-05-04 17:56 34.36659 -104.46755 33057 ft 554 kts 89°
2026-05-04 17:57 34.36602 -104.37411 33050 ft 554 kts 89°
2026-05-04 17:57 34.36544 -104.28157 33037 ft 553 kts 89°
2026-05-04 17:58 34.36475 -104.18824 33027 ft 554 kts 89°
2026-05-04 17:58 34.36402 -104.09570 33030 ft 553 kts 89°
2026-05-04 17:59 34.36320 -104.00331 33032 ft 553 kts 89°
2026-05-04 18:00 34.36187 -103.86373 33029 ft 553 kts 89°
2026-05-04 18:00 34.36087 -103.77087 33030 ft 554 kts 89°
2026-05-04 18:01 34.35978 -103.67798 33026 ft 554 kts 89°
2026-05-04 18:01 34.35867 -103.58538 33023 ft 553 kts 89°
2026-05-04 18:02 34.35685 -103.44596 33006 ft 553 kts 89°
2026-05-04 18:02 34.35557 -103.35355 32997 ft 553 kts 88°
2026-05-04 18:03 34.35417 -103.26014 32995 ft 555 kts 89°
2026-05-04 18:03 34.35273 -103.16708 32998 ft 554 kts 89°
2026-05-04 18:04 34.35119 -103.07410 32997 ft 555 kts 89°
2026-05-04 18:05 34.34877 -102.93459 33003 ft 554 kts 89°
2026-05-04 18:05 34.34705 -102.84185 33008 ft 554 kts 89°
2026-05-04 18:06 34.34439 -102.70238 33001 ft 554 kts 88°
2026-05-04 18:06 34.34253 -102.60960 32992 ft 553 kts 88°
2026-05-04 18:07 34.34062 -102.51685 32979 ft 552 kts 88°
2026-05-04 18:07 34.33861 -102.42455 32970 ft 553 kts 88°
2026-05-04 18:08 34.33655 -102.33194 32964 ft 552 kts 89°
2026-05-04 18:08 34.33441 -102.23923 32962 ft 552 kts 89°
2026-05-04 18:09 34.32995 -102.05459 32956 ft 552 kts 89°
2026-05-04 18:10 34.32761 -101.96169 32960 ft 552 kts 89°
2026-05-04 18:10 34.32516 -101.86935 32953 ft 551 kts 89°
2026-05-04 18:11 34.32269 -101.77696 32942 ft 552 kts 89°
2026-05-04 18:11 34.32013 -101.68484 32941 ft 552 kts 89°
2026-05-04 18:12 34.31751 -101.59248 32934 ft 552 kts 88°
2026-05-04 18:12 34.31480 -101.49981 32933 ft 552 kts 89°
2026-05-04 18:13 34.31204 -101.40745 32922 ft 552 kts 89°
2026-05-04 18:14 34.30774 -101.26877 32915 ft 552 kts 89°
2026-05-04 18:14 34.30482 -101.17660 32899 ft 551 kts 89°
2026-05-04 18:15 34.30635 -100.99282 32867 ft 545 kts 79°
2026-05-04 18:16 34.31500 -100.90196 32852 ft 545 kts 77°
2026-05-04 18:16 34.32355 -100.81141 32843 ft 545 kts 78°
2026-05-04 18:17 34.33579 -100.67489 32838 ft 545 kts 78°
2026-05-04 18:18 34.34776 -100.53848 32819 ft 545 kts 78°
2026-05-04 18:18 34.35567 -100.44734 32821 ft 545 kts 77°
2026-05-04 18:19 34.36702 -100.31051 32805 ft 549 kts 81°
2026-05-04 18:19 34.36740 -100.21816 32806 ft 553 kts 88°
2026-05-04 18:20 34.36348 -100.12579 32808 ft 554 kts 89°
2026-05-04 18:20 34.35938 -100.03335 32793 ft 554 kts 89°
2026-05-04 18:21 34.35551 -99.94025 32787 ft 554 kts 89°
2026-05-04 18:21 34.35170 -99.84744 32782 ft 553 kts 89°
2026-05-04 18:22 34.34783 -99.75487 32785 ft 553 kts 88°
2026-05-04 18:22 34.34393 -99.66212 32794 ft 553 kts 89°
2026-05-04 18:23 34.33990 -99.56973 32781 ft 551 kts 88°
2026-05-04 18:23 34.33588 -99.47783 32783 ft 551 kts 88°
2026-05-04 18:24 34.33175 -99.38516 32783 ft 550 kts 88°
2026-05-04 18:24 34.32757 -99.29330 32780 ft 549 kts 89°
2026-05-04 18:25 34.32336 -99.20164 32781 ft 549 kts 89°
2026-05-04 18:25 34.31901 -99.10974 32774 ft 549 kts 89°
2026-05-04 18:26 34.31464 -99.01778 32781 ft 548 kts 89°
2026-05-04 18:26 34.31016 -98.92579 32762 ft 547 kts 89°
2026-05-04 18:27 34.30572 -98.83452 32784 ft 547 kts 89°
2026-05-04 18:27 34.30113 -98.74292 32785 ft 548 kts 89°
2026-05-04 18:28 34.29649 -98.65107 32794 ft 549 kts 89°
2026-05-04 18:28 34.29174 -98.55920 32797 ft 548 kts 89°
2026-05-04 18:29 34.28692 -98.46704 32793 ft 548 kts 88°
2026-05-04 18:29 34.28209 -98.37544 32807 ft 548 kts 88°
2026-05-04 18:30 34.27469 -98.23811 32803 ft 547 kts 89°
2026-05-04 18:31 34.26967 -98.14674 32806 ft 547 kts 89°